Change the Weather History Date:

Sunday, March 30, 2014

  Actual Average Record
Temperature  
Mean Temperature 36 °F 39 °F  
Max Temperature 43 °F 48 °F 76 °F (1977)
Min Temperature 29 °F 31 °F 12 °F (1887)
Degree Days  
Heating Degree Days 29 26  
Month to date heating degree days 1151 936  
Since 1 July heating degree days 6257 5680  
Cooling Degree Days 0 0  
Month to date cooling degree days 0 0  
Year to date cooling degree days 0 0  
Moisture  
Dew Point 27 °F    
Average Humidity 73    
Maximum Humidity 92    
Minimum Humidity 53    
Precipitation  
Precipitation 0.14 in 0.10 in 1.06 in (1989)
Month to date precipitation 2.55 2.77  
Year to date precipitation 9.33 8.44  
Snow  
Snow 1.90 in 0.30 in 2.90 in (1966)
Month to date snowfall 24.5 12.7  
Since 1 July snowfall 128.7 91.5  
Snow Depth 6.00 in    
Sea Level Pressure  
Sea Level Pressure 30.00 in    
Wind  
Wind Speed 12 mph (North)    
Max Wind Speed 23 mph    
Max Gust Speed 28 mph    
Visibility 6 miles    
Events Snow    
T = Trace of Precipitation, MM = Missing Value Source: NWS Daily Summary

Daily Weather History Graph

Daily Weather History Graph

Search for Another Location

Airport or City:

Trip Planner

Search our weather history database for the weather conditions in past years. The results will help you decide how hot, cold, wet, or windy it might be!

Date:

Astronomy

Mar. 30, 2014 Rise Set
Actual Time 7:00 AM EDT 7:38 PM EDT
Civil Twilight 6:32 AM EDT 8:07 PM EDT
Nautical Twilight 5:58 AM EDT 8:41 PM EDT
Astronomical Twilight 5:23 AM EDT 9:16 PM EDT
Moon 6:45 AM EDT (3/30) 7:50 PM EDT (3/30)
Length of Visible Light 13h 35m
Length of Day
12h 38m
Waning Crescent, 0% of the Moon is Illuminated
Mar 30
Waning Crescent
Mar 30
New
Apr 7
First Quarter
Apr 15
Full
Apr 22
Last Quarter

Hourly Weather History & Observations

Time (EDT) Temp. Windchill Dew Point Humidity Pressure Visibility Wind Dir Wind Speed Gust Speed Precip Events Conditions
12:23 AM 30.9 °F 19.4 °F 28.9 °F 92% 29.94 in 1.8 mi NNE 17.3 mph 26.5 mph 0.01 in Snow Light Snow
12:54 AM 30.9 °F 19.4 °F 28.9 °F 92% 29.97 in 1.8 mi NNE 17.3 mph 26.5 mph 0.02 in Snow Light Snow
1:54 AM 30.9 °F 19.8 °F 28.9 °F 92% 29.97 in 2.0 mi NNE 16.1 mph 25.3 mph 0.02 in Snow Light Snow
2:48 AM 30.2 °F 19.3 °F 28.4 °F 93% 29.94 in 2.0 mi NNE 15.0 mph 23.0 mph 0.01 in Snow Light Snow
2:54 AM 30.9 °F 20.2 °F 28.9 °F 92% 29.96 in 2.0 mi NNE 15.0 mph - 0.01 in Snow Light Snow
3:23 AM 30.9 °F 22.8 °F 28.9 °F 92% 29.93 in 1.8 mi North 9.2 mph - 0.01 in Snow Light Snow
3:35 AM 30.9 °F 22.8 °F 30.0 °F 96% 29.93 in 2.5 mi North 9.2 mph - 0.02 in Snow Light Snow
3:54 AM 30.9 °F 21.7 °F 28.9 °F 92% 29.96 in 2.0 mi North 11.5 mph 20.7 mph 0.02 in Snow Light Snow
4:12 AM 30.9 °F 21.2 °F 28.9 °F 92% 29.93 in 1.5 mi North 12.7 mph 20.7 mph 0.01 in Snow Light Snow
4:54 AM 30.9 °F 19.4 °F 28.9 °F 92% 29.96 in 1.5 mi North 17.3 mph 21.9 mph 0.02 in Snow Light Snow
5:54 AM 30.0 °F 20.0 °F 27.0 °F 88% 29.98 in 1.8 mi North 12.7 mph - 0.00 in Snow Light Snow
6:05 AM 30.0 °F 20.0 °F 27.0 °F 88% 29.95 in 2.0 mi North 12.7 mph - 0.00 in Snow Light Snow
6:14 AM 30.0 °F 20.5 °F 27.0 °F 88% 29.95 in 2.0 mi North 11.5 mph 21.9 mph 0.00 in Snow Light Snow
6:54 AM 28.9 °F 17.3 °F 27.0 °F 92% 29.98 in 2.0 mi North 16.1 mph 19.6 mph 0.00 in Snow Light Snow
7:25 AM 28.9 °F 17.7 °F 27.0 °F 92% 29.96 in 1.2 mi North 15.0 mph 23.0 mph 0.00 in Snow Light Snow
7:54 AM 28.9 °F 17.7 °F 27.0 °F 92% 30.00 in 2.0 mi North 15.0 mph - 0.00 in Snow Light Snow
8:26 AM 30.0 °F 19.1 °F 26.1 °F 85% 29.98 in 4.0 mi North 15.0 mph - 0.01 in Snow Light Snow
8:54 AM 30.9 °F 19.8 °F 23.0 °F 72% 30.01 in 9.0 mi North 16.1 mph - 0.01 in Snow Light Snow
9:54 AM 30.9 °F 21.2 °F 23.0 °F 72% 30.03 in 10.0 mi North 12.7 mph - 0.00 in   Overcast
10:54 AM 32.0 °F 23.0 °F 24.1 °F 73% 30.03 in 10.0 mi North 11.5 mph - N/A   Overcast
11:54 AM 34.0 °F 23.8 °F 25.0 °F 70% 30.02 in 10.0 mi North 16.1 mph - N/A   Mostly Cloudy
12:54 PM 36.0 °F 27.5 °F 26.1 °F 67% 30.02 in 10.0 mi North 12.7 mph - N/A   Mostly Cloudy
1:54 PM 37.9 °F 29.2 °F 26.1 °F 62% 30.02 in 10.0 mi North 15.0 mph - N/A   Mostly Cloudy
2:54 PM 39.0 °F 30.3 °F 27.0 °F 62% 30.01 in 10.0 mi North 16.1 mph - N/A   Scattered Clouds
3:54 PM 41.0 °F 33.5 °F 28.0 °F 60% 29.99 in 10.0 mi North 13.8 mph - N/A   Partly Cloudy
4:54 PM 42.1 °F 34.5 °F 28.0 °F 58% 29.99 in 10.0 mi NNW 15.0 mph - N/A   Partly Cloudy
5:54 PM 43.0 °F 36.0 °F 27.0 °F 53% 30.01 in 10.0 mi North 13.8 mph - N/A   Partly Cloudy
6:54 PM 41.0 °F 34.7 °F 26.1 °F 55% 30.03 in 10.0 mi NNW 10.4 mph - N/A   Partly Cloudy
7:54 PM 37.9 °F 32.1 °F 27.0 °F 65% 30.04 in 10.0 mi NNW 8.1 mph - N/A   Partly Cloudy
8:54 PM 36.0 °F 32.1 °F 26.1 °F 67% 30.06 in 10.0 mi NNW 4.6 mph - N/A   Clear
9:54 PM 36.0 °F 31.1 °F 25.0 °F 64% 30.07 in 10.0 mi NNW 5.8 mph - N/A   Clear
10:54 PM 35.1 °F 29.3 °F 25.0 °F 67% 30.09 in 10.0 mi NW 6.9 mph - N/A   Clear
11:54 PM 33.1 °F 27.7 °F 24.1 °F 70% 30.09 in 10.0 mi NW 5.8 mph - N/A   Clear